Time,TemperatureF,DewpointF,PressureIn,WindDirection,WindDirectionDegrees,WindSpeedMPH,WindSpeedGustMPH,Humidity,HourlyPrecipIn,Conditions,Clouds,dailyrainin,SoftwareType,DateUTC
2013-04-05 00:05:00,60.8,56.0,30.04,West,262,1.0,7.0,84,0.00,,,0.00,weatherlink.com 1.10,2013-04-05 07:05:00,
2013-04-05 00:20:00,61.2,56.0,30.04,West,273,1.0,8.0,83,0.00,,,0.00,weatherlink.com 1.10,2013-04-05 07:20:00,
2013-04-05 00:35:00,61.1,56.0,30.04,West,279,1.0,6.0,83,0.00,,,0.00,weatherlink.com 1.10,2013-04-05 07:35:00,
2013-04-05 00:50:00,61.0,56.0,30.04,West,280,0.0,4.0,84,0.00,,,0.00,weatherlink.com 1.10,2013-04-05 07:50:00,
2013-04-05 01:05:00,60.9,56.0,30.04,West,279,3.0,4.0,83,0.00,,,0.00,weatherlink.com 1.10,2013-04-05 08:05:00,
2013-04-05 01:20:00,60.7,56.0,30.04,West,263,2.0,7.0,83,0.00,,,0.00,weatherlink.com 1.10,2013-04-05 08:20:00,
2013-04-05 01:35:00,60.8,56.0,30.04,WSW,254,1.0,4.0,83,0.00,,,0.00,weatherlink.com 1.10,2013-04-05 08:35:00,
2013-04-05 01:50:00,60.9,56.0,30.04,SW,236,4.0,4.0,83,0.00,,,0.00,weatherlink.com 1.10,2013-04-05 08:50:00,
2013-04-05 02:05:00,61.2,56.0,30.04,West,268,2.0,7.0,82,0.00,,,0.00,weatherlink.com 1.10,2013-04-05 09:05:00,
2013-04-05 02:20:00,61.0,56.0,30.04,West,274,5.0,9.0,82,0.00,,,0.00,weatherlink.com 1.10,2013-04-05 09:20:00,
2013-04-05 02:35:00,61.0,56.0,30.04,NW,305,0.0,5.0,82,0.00,,,0.00,weatherlink.com 1.10,2013-04-05 09:35:00,
2013-04-05 02:50:00,61.1,56.0,30.03,WNW,284,0.0,5.0,82,0.00,,,0.00,weatherlink.com 1.10,2013-04-05 09:50:00,
2013-04-05 03:05:00,61.3,55.0,30.03,West,262,2.0,5.0,81,0.00,,,0.00,weatherlink.com 1.10,2013-04-05 10:05:00,
2013-04-05 03:20:00,61.4,55.0,30.03,WSW,253,1.0,5.0,80,0.00,,,0.00,weatherlink.com 1.10,2013-04-05 10:20:00,
2013-04-05 03:35:00,61.2,55.0,30.03,West,266,1.0,3.0,81,0.00,,,0.00,weatherlink.com 1.10,2013-04-05 10:35:00,
2013-04-05 03:50:00,61.0,56.0,30.02,West,270,0.0,1.0,82,0.00,,,0.00,weatherlink.com 1.10,2013-04-05 10:50:00,
2013-04-05 04:05:00,61.0,56.0,30.02,West,266,3.0,3.0,82,0.00,,,0.00,weatherlink.com 1.10,2013-04-05 11:05:00,
2013-04-05 04:20:00,60.9,56.0,30.03,WSW,248,0.0,4.0,83,0.00,,,0.00,weatherlink.com 1.10,2013-04-05 11:20:00,
2013-04-05 04:35:00,60.7,56.0,30.02,WSW,244,0.0,3.0,83,0.00,,,0.00,weatherlink.com 1.10,2013-04-05 11:35:00,
2013-04-05 04:50:00,60.7,56.0,30.03,West,262,1.0,4.0,83,0.00,,,0.00,weatherlink.com 1.10,2013-04-05 11:50:00,
2013-04-05 05:05:00,60.8,55.0,30.02,WSW,251,2.0,4.0,82,0.00,,,0.00,weatherlink.com 1.10,2013-04-05 12:05:00,
2013-04-05 05:20:00,60.9,55.0,30.02,WSW,240,1.0,5.0,81,0.00,,,0.00,weatherlink.com 1.10,2013-04-05 12:20:00,
2013-04-05 05:35:00,60.9,55.0,30.02,NW,322,2.0,4.0,81,0.00,,,0.00,weatherlink.com 1.10,2013-04-05 12:35:00,
2013-04-05 05:50:00,60.8,55.0,30.02,WSW,251,0.0,2.0,82,0.00,,,0.00,weatherlink.com 1.10,2013-04-05 12:50:00,
2013-04-05 06:05:00,60.6,55.0,30.03,SW,236,1.0,3.0,83,0.00,,,0.00,weatherlink.com 1.10,2013-04-05 13:05:00,
2013-04-05 06:20:00,60.4,56.0,30.03,SW,224,0.0,3.0,84,0.00,,,0.00,weatherlink.com 1.10,2013-04-05 13:20:00,
2013-04-05 06:35:00,60.3,56.0,30.03,WSW,242,0.0,4.0,84,0.00,,,0.00,weatherlink.com 1.10,2013-04-05 13:35:00,
2013-04-05 06:50:00,60.1,56.0,30.03,WSW,243,2.0,5.0,85,0.00,,,0.00,weatherlink.com 1.10,2013-04-05 13:50:00,
2013-04-05 07:05:00,59.9,55.0,30.04,SW,232,0.0,4.0,85,0.00,,,0.00,weatherlink.com 1.10,2013-04-05 14:05:00,
2013-04-05 07:35:00,59.9,56.0,30.04,SW,217,1.0,3.0,86,0.00,,,0.00,weatherlink.com 1.10,2013-04-05 14:35:00,
2013-04-05 07:50:00,60.0,56.0,30.05,WSW,237,1.0,3.0,86,0.00,,,0.00,weatherlink.com 1.10,2013-04-05 14:50:00,
2013-04-05 08:05:00,60.2,56.0,30.05,South,188,2.0,3.0,85,0.00,,,0.00,weatherlink.com 1.10,2013-04-05 15:05:00,
2013-04-05 08:20:00,60.5,56.0,30.05,SW,228,0.0,2.0,84,0.00,,,0.00,weatherlink.com 1.10,2013-04-05 15:20:00,
2013-04-05 08:35:00,61.1,56.0,30.05,WSW,248,2.0,2.0,83,0.00,,,0.00,weatherlink.com 1.10,2013-04-05 15:35:00,
2013-04-05 08:50:00,61.7,56.0,30.05,SW,231,3.0,4.0,82,0.00,,,0.00,weatherlink.com 1.10,2013-04-05 15:50:00,
2013-04-05 09:05:00,62.4,56.0,30.05,SW,215,1.0,3.0,80,0.00,,,0.00,weatherlink.com 1.10,2013-04-05 16:05:00,
2013-04-05 09:20:00,63.3,56.0,30.05,WSW,246,1.0,5.0,77,0.00,,,0.00,weatherlink.com 1.10,2013-04-05 16:20:00,
2013-04-05 09:35:00,64.4,56.0,30.05,SW,216,0.0,6.0,74,0.00,,,0.00,weatherlink.com 1.10,2013-04-05 16:35:00,
2013-04-05 09:50:00,64.7,56.0,30.06,WSW,245,1.0,6.0,73,0.00,,,0.00,weatherlink.com 1.10,2013-04-05 16:50:00,
2013-04-05 10:05:00,65.1,55.0,30.06,SW,222,2.0,6.0,71,0.00,,,0.00,weatherlink.com 1.10,2013-04-05 17:05:00,
2013-04-05 10:20:00,64.8,56.0,30.06,SW,233,2.0,5.0,72,0.00,,,0.00,weatherlink.com 1.10,2013-04-05 17:20:00,
2013-04-05 10:35:00,66.0,56.0,30.06,SW,235,3.0,6.0,70,0.00,,,0.00,weatherlink.com 1.10,2013-04-05 17:35:00,
2013-04-05 10:50:00,65.6,56.0,30.06,SW,233,1.0,9.0,71,0.00,,,0.00,weatherlink.com 1.10,2013-04-05 17:50:00,
2013-04-05 11:06:00,66.4,56.0,30.06,SE,135,4.0,8.0,69,0.00,,,0.00,weatherlink.com 1.10,2013-04-05 18:06:00,
2013-04-05 11:21:00,66.8,56.0,30.06,WSW,240,4.0,7.0,68,0.00,,,0.00,weatherlink.com 1.10,2013-04-05 18:21:00,
2013-04-05 11:36:00,66.8,55.0,30.06,SSW,207,4.0,9.0,67,0.00,,,0.00,weatherlink.com 1.10,2013-04-05 18:36:00,
2013-04-05 11:51:00,67.8,56.0,30.05,West,271,3.0,10.0,66,0.00,,,0.00,weatherlink.com 1.10,2013-04-05 18:51:00,
2013-04-05 12:06:00,68.3,56.0,30.05,SW,231,4.0,7.0,65,0.00,,,0.00,weatherlink.com 1.10,2013-04-05 19:06:00,
2013-04-05 12:36:00,68.4,55.0,30.04,WSW,240,7.0,9.0,63,0.00,,,0.00,weatherlink.com 1.10,2013-04-05 19:36:00,
2013-04-05 12:51:00,68.8,56.0,30.04,West,266,2.0,8.0,65,0.00,,,0.00,weatherlink.com 1.10,2013-04-05 19:51:00,
2013-04-05 13:51:00,69.2,56.0,30.02,SSW,206,6.0,10.0,63,0.00,,,0.00,weatherlink.com 1.10,2013-04-05 20:51:00,
2013-04-05 14:06:00,68.8,56.0,30.01,SSW,213,6.0,10.0,65,0.00,,,0.00,weatherlink.com 1.10,2013-04-05 21:06:00,
2013-04-05 14:21:00,68.4,56.0,30.01,SW,233,8.0,10.0,65,0.00,,,0.00,weatherlink.com 1.10,2013-04-05 21:21:00,
2013-04-05 14:51:00,68.3,56.0,30.00,SSW,199,3.0,9.0,65,0.00,,,0.00,weatherlink.com 1.10,2013-04-05 21:51:00,
2013-04-05 15:21:00,68.8,56.0,30.00,SE,132,4.0,11.0,65,0.00,,,0.00,weatherlink.com 1.10,2013-04-05 22:21:00,
2013-04-05 15:36:00,68.3,56.0,30.00,SW,224,6.0,11.0,66,0.00,,,0.00,weatherlink.com 1.10,2013-04-05 22:36:00,
2013-04-05 15:51:00,67.7,56.0,30.00,SW,214,3.0,12.0,66,0.00,,,0.00,weatherlink.com 1.10,2013-04-05 22:51:00,
2013-04-05 16:06:00,67.9,56.0,30.00,SW,234,3.0,12.0,65,0.00,,,0.00,weatherlink.com 1.10,2013-04-05 23:06:00,
2013-04-05 16:21:00,68.4,56.0,29.99,SSW,213,8.0,14.0,65,0.00,,,0.00,weatherlink.com 1.10,2013-04-05 23:21:00,
2013-04-05 16:36:00,68.8,56.0,29.98,North,360,2.0,12.0,64,0.00,,,0.00,weatherlink.com 1.10,2013-04-05 23:36:00,
2013-04-05 16:51:00,67.3,55.0,29.98,ESE,122,4.0,13.0,66,0.00,,,0.00,weatherlink.com 1.10,2013-04-05 23:51:00,
2013-04-05 17:06:00,66.1,56.0,29.97,South,174,5.0,10.0,69,0.00,,,0.00,weatherlink.com 1.10,2013-04-06 00:06:00,
2013-04-05 17:21:00,66.1,56.0,29.97,WSW,249,5.0,8.0,69,0.00,,,0.00,weatherlink.com 1.10,2013-04-06 00:21:00,
2013-04-05 17:36:00,65.0,55.0,29.97,WSW,241,4.0,11.0,71,0.00,,,0.00,weatherlink.com 1.10,2013-04-06 00:36:00,
2013-04-05 17:51:00,64.3,55.0,29.97,WSW,242,5.0,8.0,72,0.00,,,0.00,weatherlink.com 1.10,2013-04-06 00:51:00,
2013-04-05 18:06:00,63.8,55.0,29.98,West,269,3.0,9.0,74,0.00,,,0.00,weatherlink.com 1.10,2013-04-06 01:06:00,
2013-04-05 18:21:00,64.0,56.0,29.98,SSW,210,3.0,7.0,74,0.00,,,0.00,weatherlink.com 1.10,2013-04-06 01:21:00,
2013-04-05 18:36:00,63.7,55.0,29.97,SSW,213,8.0,11.0,73,0.00,,,0.00,weatherlink.com 1.10,2013-04-06 01:36:00,
2013-04-05 19:06:00,62.2,55.0,29.98,SW,226,1.0,7.0,77,0.00,,,0.00,weatherlink.com 1.10,2013-04-06 02:06:00,
2013-04-05 19:21:00,61.3,55.0,29.98,SSE,165,4.0,6.0,79,0.00,,,0.00,weatherlink.com 1.10,2013-04-06 02:21:00,
2013-04-05 19:36:00,60.6,55.0,29.98,SE,139,2.0,5.0,81,0.00,,,0.00,weatherlink.com 1.10,2013-04-06 02:36:00,
2013-04-05 19:51:00,60.3,55.0,29.98,South,185,1.0,5.0,82,0.00,,,0.00,weatherlink.com 1.10,2013-04-06 02:51:00,
2013-04-05 20:06:00,60.3,55.0,29.98,SSW,210,0.0,5.0,82,0.00,,,0.00,weatherlink.com 1.10,2013-04-06 03:06:00,
2013-04-05 20:21:00,60.3,55.0,29.98,SSE,162,2.0,5.0,82,0.00,,,0.00,weatherlink.com 1.10,2013-04-06 03:21:00,
2013-04-05 20:36:00,60.2,55.0,30.00,SE,129,0.0,6.0,83,0.00,,,0.00,weatherlink.com 1.10,2013-04-06 03:36:00,
2013-04-05 20:51:00,60.1,55.0,30.00,SSE,160,3.0,3.0,83,0.00,,,0.00,weatherlink.com 1.10,2013-04-06 03:51:00,
2013-04-05 21:21:00,60.0,55.0,30.00,SE,129,2.0,4.0,84,0.00,,,0.00,weatherlink.com 1.10,2013-04-06 04:21:00,
2013-04-05 21:36:00,60.0,55.0,30.01,WSW,244,0.0,4.0,84,0.00,,,0.00,weatherlink.com 1.10,2013-04-06 04:36:00,
2013-04-05 21:51:00,60.1,55.0,30.01,SW,220,0.0,5.0,84,0.00,,,0.00,weatherlink.com 1.10,2013-04-06 04:51:00,
2013-04-05 22:06:00,60.0,55.0,30.02,SW,219,0.0,4.0,84,0.00,,,0.00,weatherlink.com 1.10,2013-04-06 05:06:00,
2013-04-05 22:36:00,60.2,55.0,30.02,SSE,149,1.0,3.0,84,0.00,,,0.00,weatherlink.com 1.10,2013-04-06 05:36:00,
2013-04-05 22:51:00,60.3,56.0,30.02,SSE,167,3.0,3.0,84,0.00,,,0.00,weatherlink.com 1.10,2013-04-06 05:51:00,
2013-04-05 23:06:00,60.2,56.0,30.02,ESE,122,4.0,5.0,85,0.00,,,0.00,weatherlink.com 1.10,2013-04-06 06:06:00,
2013-04-05 23:21:00,60.3,56.0,30.02,SSW,207,1.0,4.0,84,0.00,,,0.00,weatherlink.com 1.10,2013-04-06 06:21:00,
2013-04-05 23:36:00,60.1,55.0,30.02,South,175,1.0,3.0,84,0.00,,,0.00,weatherlink.com 1.10,2013-04-06 06:36:00,
2013-04-05 23:51:00,60.1,55.0,30.02,SSE,155,3.0,5.0,84,0.00,,,0.00,weatherlink.com 1.10,2013-04-06 06:51:00,